When you browse on this site, cookies collect data to enhance your experience and personalize the content and advertising you see.
Visit our Privacy Policy to learn more. By continuing to use the site, you agree to this use of cookies and data.
  • In Hungary
  • List of Countries
  • For 7 days
  • Water Temperature
  • Satellite Maps
  • Weather Map
  • News
  • Weather Widgets
  • user-avatar
    Login

    Hourly Weather Mechernich

    Today, 24 February, Sunday

    Time Temperature Precipitation Wind Pressure Humidity
    00:00 +2°C° 0 mm 3 mps 748 mmHg 59%
    01:00 +2°C° 0 mm 3 mps 748 mmHg 56%
    02:00 +1°C° 0 mm 3 mps 748 mmHg 53%
    03:00 +1°C° 0 mm 3 mps 748 mmHg 50%
    04:00 +2°C° 0 mm 2 mps 748 mmHg 48%
    05:00 +2°C° 0 mm 2 mps 748 mmHg 46%
    06:00 +2°C° 0 mm 2 mps 748 mmHg 43%
    07:00 +4°C° 0 mm 2 mps 748 mmHg 41%
    08:00 +5°C° 0 mm 2 mps 748 mmHg 39%
    09:00 +7°C° 0 mm 2 mps 748 mmHg 37%
    10:00 +8°C° 0 mm 2 mps 749 mmHg 36%
    11:00 +10°C° 0 mm 2 mps 749 mmHg 34%
    12:00 +12°C° 0 mm 2 mps 749 mmHg 32%
    13:00 +13°C° 0 mm 2 mps 749 mmHg 35%
    14:00 +13°C° 0 mm 2 mps 749 mmHg 37%
    15:00 +13°C° 0 mm 1 mps 749 mmHg 39%
    16:00 +11°C° 0 mm 1 mps 748 mmHg 43%
    17:00 +9°C° 0 mm 1 mps 748 mmHg 47%
    18:00 +7°C° 0 mm 1 mps 748 mmHg 51%
    19:00 +7°C° 0 mm 1 mps 748 mmHg 50%
    20:00 +6°C° 0 mm 2 mps 748 mmHg 49%
    21:00 +6°C° 0 mm 2 mps 749 mmHg 48%
    22:00 +5°C° 0 mm 2 mps 749 mmHg 48%
    23:00 +5°C° 0 mm 2 mps 749 mmHg 48%

    Tomorrow, 25 February, Monday

    Time Temperature Precipitation Wind Pressure Humidity
    00:00 +6°C° 0 mm 1 mps 749 mmHg 48%
    01:00 +6°C° 0 mm 1 mps 749 mmHg 48%
    02:00 +6°C° 0 mm 1 mps 749 mmHg 49%
    03:00 +6°C° 0 mm 1 mps 749 mmHg 50%
    04:00 +6°C° 0 mm 1 mps 749 mmHg 50%
    05:00 +5°C° 0 mm 1 mps 749 mmHg 51%
    06:00 +5°C° 0 mm 1 mps 749 mmHg 52%
    07:00 +7°C° 0 mm 1 mps 749 mmHg 51%
    08:00 +9°C° 0 mm 1 mps 749 mmHg 50%
    09:00 +9°C° 0 mm 2 mps 749 mmHg 49%
    10:00 +12°C° 0 mm 2 mps 749 mmHg 46%
    11:00 +13°C° 0 mm 2 mps 749 mmHg 44%
    12:00 +15°C° 0 mm 2 mps 749 mmHg 42%
    13:00 +15°C° 0 mm 2 mps 749 mmHg 44%
    14:00 +15°C° 0 mm 1 mps 748 mmHg 46%
    15:00 +15°C° 0 mm 1 mps 748 mmHg 47%
    16:00 +13°C° 0 mm 1 mps 748 mmHg 53%
    17:00 +11°C° 0 mm 1 mps 748 mmHg 59%
    18:00 +9°C° 0 mm 1 mps 748 mmHg 65%
    19:00 +9°C° 0 mm 1 mps 748 mmHg 65%
    20:00 +8°C° 0 mm 1 mps 748 mmHg 65%
    21:00 +8°C° 0 mm 1 mps 748 mmHg 66%
    22:00 +8°C° 0 mm 1 mps 748 mmHg 65%
    23:00 +8°C° 0 mm 1 mps 748 mmHg 65%

    Day after tomorrow, 26 February, Tuesday

    Time Temperature Precipitation Wind Pressure Humidity
    00:00 +7°C° 0 mm 2 mps 748 mmHg 64%
    01:00 +7°C° 0 mm 2 mps 747 mmHg 64%
    02:00 +7°C° 0 mm 1 mps 747 mmHg 63%
    03:00 +7°C° 0 mm 1 mps 747 mmHg 63%
    04:00 +7°C° 0 mm 1 mps 747 mmHg 63%
    05:00 +7°C° 0 mm 1 mps 746 mmHg 63%
    06:00 +7°C° 0 mm 1 mps 746 mmHg 63%
    07:00 +8°C° 0 mm 1 mps 747 mmHg 60%
    08:00 +10°C° 0 mm 1 mps 747 mmHg 57%
    09:00 +12°C° 0 mm 1 mps 747 mmHg 54%
    10:00 +14°C° 0 mm 1 mps 747 mmHg 49%
    11:00 +15°C° 0 mm 1 mps 747 mmHg 45%
    12:00 +18°C° 0 mm 1 mps 747 mmHg 40%
    13:00 +18°C° 0 mm 1 mps 747 mmHg 42%
    14:00 +18°C° 0 mm 1 mps 746 mmHg 44%
    15:00 +18°C° 0 mm 1 mps 746 mmHg 45%
    16:00 +15°C° 0 mm 1 mps 745 mmHg 51%
    17:00 +13°C° 0 mm 1 mps 745 mmHg 57%
    18:00 +11°C° 0 mm 1 mps 745 mmHg 63%
    19:00 +10°C° 0 mm 1 mps 745 mmHg 63%
    20:00 +9°C° 0 mm 2 mps 745 mmHg 63%
    21:00 +8°C° 0 mm 2 mps 745 mmHg 63%
    22:00 +8°C° 0 mm 2 mps 745 mmHg 61%
    23:00 +8°C° 0 mm 2 mps 745 mmHg 59%

    27 February, Wednesday

    Time Temperature Precipitation Wind Pressure Humidity
    00:00 +7°C° 0 mm 2 mps 744 mmHg 57%
    01:00 +7°C° 0 mm 2 mps 744 mmHg 55%
    02:00 +7°C° 0 mm 2 mps 744 mmHg 53%
    03:00 +7°C° 0 mm 2 mps 743 mmHg 52%
    04:00 +7°C° 0 mm 2 mps 743 mmHg 51%
    05:00 +7°C° 0 mm 2 mps 743 mmHg 51%
    06:00 +6°C° 0 mm 2 mps 743 mmHg 51%
    07:00 +8°C° 0 mm 2 mps 743 mmHg 49%
    08:00 +10°C° 0 mm 2 mps 743 mmHg 48%
    09:00 +12°C° 0 mm 2 mps 743 mmHg 47%
    10:00 +14°C° 0 mm 2 mps 743 mmHg 44%
    11:00 +16°C° 0 mm 2 mps 742 mmHg 40%
    12:00 +17°C° 0 mm 2 mps 742 mmHg 37%
    13:00 +17°C° 0 mm 2 mps 742 mmHg 39%
    14:00 +19°C° 0 mm 1 mps 741 mmHg 40%
    15:00 +19°C° 0 mm 1 mps 740 mmHg 42%
    16:00 +15°C° 0 mm 1 mps 740 mmHg 49%
    17:00 +13°C° 0 mm 2 mps 740 mmHg 55%
    18:00 +10°C° 0 mm 2 mps 740 mmHg 62%
    19:00 +9°C° 0 mm 2 mps 740 mmHg 63%
    20:00 +9°C° 0 mm 2 mps 739 mmHg 63%
    21:00 +8°C° 0 mm 2 mps 739 mmHg 64%
    22:00 +8°C° 0 mm 2 mps 739 mmHg 65%
    23:00 +8°C° 0 mm 2 mps 739 mmHg 65%

    28 February, Thursday

    Time Temperature Precipitation Wind Pressure Humidity
    00:00 +7°C° 0 mm 2 mps 739 mmHg 66%
    01:00 +7°C° 0 mm 2 mps 739 mmHg 68%
    02:00 +7°C° 0 mm 2 mps 738 mmHg 69%
    03:00 +8°C° 0 mm 1 mps 738 mmHg 71%
    04:00 +8°C° 0 mm 1 mps 738 mmHg 73%
    05:00 +7°C° 0 mm 1 mps 738 mmHg 75%
    06:00 +7°C° 0 mm 1 mps 738 mmHg 77%
    07:00 +9°C° 0 mm 1 mps 738 mmHg 73%
    08:00 +11°C° 0 mm 1 mps 738 mmHg 69%
    09:00 +12°C° 0 mm 1 mps 738 mmHg 65%
    10:00 +14°C° 0 mm 2 mps 738 mmHg 62%
    11:00 +15°C° 0 mm 2 mps 738 mmHg 58%
    12:00 +16°C° 0 mm 2 mps 738 mmHg 55%
    13:00 +16°C° 0 mm 2 mps 738 mmHg 56%
    14:00 +16°C° 0 mm 3 mps 737 mmHg 57%
    15:00 +16°C° 0 mm 3 mps 737 mmHg 58%
    16:00 +14°C° 0 mm 2 mps 737 mmHg 67%
    17:00 +12°C° 0 mm 2 mps 737 mmHg 76%
    18:00 +11°C° 0 mm 1 mps 737 mmHg 85%
    19:00 +10°C° 0 mm 1 mps 737 mmHg 87%
    20:00 +10°C° 0 mm 1 mps 737 mmHg 89%
    21:00 +9°C° 0 mm 1 mps 737 mmHg 91%
    22:00 +9°C° 0 mm 1 mps 738 mmHg 92%
    23:00 +8°C° 0 mm 1 mps 738 mmHg 93%

    1 March, Friday

    Time Temperature Precipitation Wind Pressure Humidity
    00:00 +8°C° 0 mm 1 mps 738 mmHg 94%
    01:00 +8°C° 0 mm 1 mps 738 mmHg 94%
    02:00 +7°C° 0 mm 1 mps 737 mmHg 94%
    03:00 +7°C° 0 mm 1 mps 737 mmHg 94%
    04:00 +7°C° 0 mm 1 mps 737 mmHg 94%
    05:00 +6°C° 0 mm 1 mps 738 mmHg 94%
    06:00 +6°C° 0 mm 1 mps 738 mmHg 94%
    07:00 +7°C° 0 mm 1 mps 738 mmHg 90%
    08:00 +8°C° 0 mm 1 mps 738 mmHg 85%
    09:00 +9°C° 0 mm 1 mps 739 mmHg 80%
    10:00 +9°C° 0 mm 2 mps 739 mmHg 74%
    11:00 +10°C° 0 mm 2 mps 739 mmHg 68%
    12:00 +12°C° 0 mm 2 mps 738 mmHg 62%
    13:00 +12°C° 0 mm 2 mps 738 mmHg 61%
    14:00 +13°C° 0 mm 2 mps 738 mmHg 61%
    15:00 +13°C° 0 mm 2 mps 738 mmHg 60%
    16:00 +10°C° 0 mm 2 mps 738 mmHg 64%
    17:00 +9°C° 0 mm 2 mps 738 mmHg 68%
    18:00 +8°C° 0 mm 1 mps 738 mmHg 73%
    19:00 +8°C° 0 mm 1 mps 738 mmHg 72%
    20:00 +7°C° 0 mm 1 mps 738 mmHg 72%
    21:00 +6°C° 0 mm 1 mps 738 mmHg 72%
    22:00 +6°C° 0 mm 1 mps 739 mmHg 73%
    23:00 +5°C° 0 mm 1 mps 739 mmHg 75%
    Show more